Time,TemperatureF,DewpointF,PressureIn,WindDirection,WindDirectionDegrees,WindSpeedMPH,WindSpeedGustMPH,Humidity,HourlyPrecipIn,Conditions,Clouds,dailyrainin,SoftwareType,DateUTC
2013-08-29 00:00:00,77.3,75.1,30.04,SSE,156,0.0,0.0,93,0.00,,,0.02,Wunderground v.1.13,2013-08-29 04:00:00,
2013-08-29 00:02:00,77.2,75.0,30.04,SSE,156,0.0,0.0,93,0.00,,,0.02,Wunderground v.1.13,2013-08-29 04:02:00,
2013-08-29 00:04:00,77.2,75.0,30.04,SSE,156,0.0,0.0,93,0.00,,,0.02,Wunderground v.1.13,2013-08-29 04:04:00,
2013-08-29 00:06:00,77.3,75.4,30.03,SSE,156,0.0,0.0,94,0.00,,,0.02,Wunderground v.1.13,2013-08-29 04:06:00,
2013-08-29 00:08:00,77.3,75.1,30.03,SSE,156,0.0,0.0,93,0.00,,,0.02,Wunderground v.1.13,2013-08-29 04:08:00,
2013-08-29 00:12:00,77.3,75.1,30.04,SSE,156,0.0,0.0,93,0.00,,,0.02,Wunderground v.1.13,2013-08-29 04:12:00,
2013-08-29 00:18:00,77.0,74.5,30.03,SSE,156,0.0,0.0,92,0.00,,,0.02,Wunderground v.1.13,2013-08-29 04:18:00,
2013-08-29 00:24:00,76.5,74.3,30.03,SSE,156,0.0,0.0,93,0.00,,,0.02,Wunderground v.1.13,2013-08-29 04:24:00,
2013-08-29 00:30:00,76.4,74.2,30.03,SSE,156,0.0,0.0,93,0.00,,,0.02,Wunderground v.1.13,2013-08-29 04:30:00,
2013-08-29 00:34:00,76.3,74.1,30.03,SSE,156,0.0,0.0,93,0.00,,,0.02,Wunderground v.1.13,2013-08-29 04:34:00,
2013-08-29 00:40:00,76.2,73.7,30.03,SSE,156,0.0,0.0,92,0.00,,,0.00,Wunderground v.1.13,2013-08-29 04:40:00,
2013-08-29 00:46:00,76.2,73.4,30.03,SSE,156,0.0,0.0,91,0.00,,,0.00,Wunderground v.1.13,2013-08-29 04:46:00,
2013-08-29 00:52:00,76.3,73.5,30.03,SSE,156,0.0,0.0,91,0.00,,,0.00,Wunderground v.1.13,2013-08-29 04:52:00,
2013-08-29 00:58:00,76.6,74.1,30.03,SSE,156,0.0,0.0,92,0.00,,,0.00,Wunderground v.1.13,2013-08-29 04:58:00,
2013-08-29 01:04:00,76.6,73.8,30.03,SSE,156,0.0,0.0,91,0.00,,,0.00,Wunderground v.1.13,2013-08-29 05:04:00,
2013-08-29 01:10:00,76.5,73.7,30.03,SSE,156,0.0,0.0,91,0.00,,,0.00,Wunderground v.1.13,2013-08-29 05:10:00,
2013-08-29 01:16:00,76.3,73.8,30.03,SSE,156,0.0,0.0,92,0.00,,,0.00,Wunderground v.1.13,2013-08-29 05:16:00,
2013-08-29 01:22:00,76.3,73.8,30.02,SSE,156,0.0,0.0,92,0.00,,,0.00,Wunderground v.1.13,2013-08-29 05:22:00,
2013-08-29 01:28:00,76.3,73.8,30.02,SSE,156,0.0,0.0,92,0.00,,,0.00,Wunderground v.1.13,2013-08-29 05:28:00,
2013-08-29 01:34:00,76.2,73.7,30.03,SSE,156,0.0,0.0,92,0.00,,,0.00,Wunderground v.1.13,2013-08-29 05:34:00,
2013-08-29 01:40:00,76.2,74.0,30.02,SSE,156,0.0,0.0,93,0.00,,,0.00,Wunderground v.1.13,2013-08-29 05:40:00,
2013-08-29 01:46:00,76.0,73.8,30.02,SSE,156,0.0,0.0,93,0.00,,,0.00,Wunderground v.1.13,2013-08-29 05:46:00,
2013-08-29 01:52:00,75.8,73.6,30.02,SSE,156,0.0,0.0,93,0.00,,,0.00,Wunderground v.1.13,2013-08-29 05:52:00,
2013-08-29 01:58:00,75.7,73.5,30.02,SSE,156,0.0,0.0,93,0.00,,,0.00,Wunderground v.1.13,2013-08-29 05:58:00,
2013-08-29 02:04:00,75.6,73.4,30.02,SSE,156,0.0,0.0,93,0.00,,,0.00,Wunderground v.1.13,2013-08-29 06:04:00,
2013-08-29 02:10:00,75.5,73.3,30.02,SSE,156,0.0,0.0,93,0.00,,,0.00,Wunderground v.1.13,2013-08-29 06:10:00,
2013-08-29 02:16:00,75.5,73.3,30.02,SSE,156,0.0,0.0,93,0.00,,,0.00,Wunderground v.1.13,2013-08-29 06:16:00,
2013-08-29 02:22:00,75.5,73.7,30.02,SSE,156,0.0,0.0,94,0.00,,,0.00,Wunderground v.1.13,2013-08-29 06:22:00,
2013-08-29 02:28:00,75.6,73.8,30.02,SSE,156,0.0,0.0,94,0.00,,,0.00,Wunderground v.1.13,2013-08-29 06:28:00,
2013-08-29 02:34:00,75.7,73.8,30.02,SSE,156,0.0,0.0,94,0.00,,,0.00,Wunderground v.1.13,2013-08-29 06:34:00,
2013-08-29 02:40:00,75.5,73.3,30.02,SSE,156,0.0,0.0,93,0.00,,,0.00,Wunderground v.1.13,2013-08-29 06:40:00,
2013-08-29 02:46:00,75.5,73.7,30.02,SSE,156,0.0,0.0,94,0.00,,,0.00,Wunderground v.1.13,2013-08-29 06:46:00,
2013-08-29 02:52:00,75.6,73.8,30.02,SSE,156,0.0,0.0,94,0.00,,,0.00,Wunderground v.1.13,2013-08-29 06:52:00,
2013-08-29 02:58:00,75.7,73.8,30.02,SSE,156,0.0,0.0,94,0.00,,,0.00,Wunderground v.1.13,2013-08-29 06:58:00,
2013-08-29 03:04:00,75.7,73.8,30.02,SSE,156,0.0,0.0,94,0.00,,,0.00,Wunderground v.1.13,2013-08-29 07:04:00,
2013-08-29 03:10:00,75.7,73.8,30.02,SSE,156,0.0,0.0,94,0.00,,,0.00,Wunderground v.1.13,2013-08-29 07:10:00,
2013-08-29 03:16:00,75.6,73.4,30.02,SSE,156,0.0,0.0,93,0.00,,,0.00,Wunderground v.1.13,2013-08-29 07:16:00,
2013-08-29 03:22:00,75.6,73.1,30.02,SSE,156,0.0,0.0,92,0.00,,,0.00,Wunderground v.1.13,2013-08-29 07:22:00,
2013-08-29 03:28:00,76.0,73.2,30.01,SSE,156,0.0,0.0,91,0.00,,,0.00,Wunderground v.1.13,2013-08-29 07:28:00,
2013-08-29 03:34:00,76.4,72.9,30.02,SSE,156,0.0,0.0,89,0.00,,,0.00,Wunderground v.1.13,2013-08-29 07:34:00,
2013-08-29 03:40:00,76.7,72.9,30.02,SSE,156,0.0,0.0,88,0.00,,,0.00,Wunderground v.1.13,2013-08-29 07:40:00,
2013-08-29 03:46:00,77.0,72.5,30.02,SSE,156,0.0,0.0,86,0.00,,,0.00,Wunderground v.1.13,2013-08-29 07:46:00,
2013-08-29 03:52:00,77.3,73.5,30.02,SSE,156,0.0,0.0,88,0.00,,,0.00,Wunderground v.1.13,2013-08-29 07:52:00,
2013-08-29 03:58:00,77.4,73.9,30.01,SSE,156,0.0,0.0,89,0.00,,,0.00,Wunderground v.1.13,2013-08-29 07:58:00,
2013-08-29 04:04:00,77.3,73.8,30.01,SSE,156,0.0,0.0,89,0.00,,,0.00,Wunderground v.1.13,2013-08-29 08:04:00,
2013-08-29 04:10:00,77.2,73.7,30.01,SSE,156,0.0,0.0,89,0.00,,,0.00,Wunderground v.1.13,2013-08-29 08:10:00,
2013-08-29 04:16:00,77.0,73.8,30.01,SSE,156,0.0,0.0,90,0.00,,,0.00,Wunderground v.1.13,2013-08-29 08:16:00,
2013-08-29 04:22:00,76.5,73.3,30.00,SSE,156,0.0,0.0,90,0.00,,,0.00,Wunderground v.1.13,2013-08-29 08:22:00,
2013-08-29 04:28:00,76.2,73.1,30.01,SSE,156,0.0,0.0,90,0.00,,,0.00,Wunderground v.1.13,2013-08-29 08:28:00,
2013-08-29 04:34:00,76.1,73.3,30.01,SSE,156,0.0,0.0,91,0.00,,,0.00,Wunderground v.1.13,2013-08-29 08:34:00,
2013-08-29 04:40:00,76.0,73.2,30.00,SSE,156,0.0,0.0,91,0.00,,,0.00,Wunderground v.1.13,2013-08-29 08:40:00,
2013-08-29 04:46:00,75.9,73.1,30.00,SSE,156,0.0,0.0,91,0.00,,,0.00,Wunderground v.1.13,2013-08-29 08:46:00,
2013-08-29 04:52:00,75.8,73.0,30.00,SSE,156,0.0,0.0,91,0.00,,,0.00,Wunderground v.1.13,2013-08-29 08:52:00,
2013-08-29 04:58:00,75.7,73.2,30.00,SSE,156,0.0,0.0,92,0.00,,,0.00,Wunderground v.1.13,2013-08-29 08:58:00,
2013-08-29 05:04:00,75.8,73.3,30.00,SSE,156,0.0,0.0,92,0.00,,,0.00,Wunderground v.1.13,2013-08-29 09:04:00,
2013-08-29 05:10:00,75.7,73.2,30.00,SSE,156,0.0,0.0,92,0.00,,,0.00,Wunderground v.1.13,2013-08-29 09:10:00,
2013-08-29 05:16:00,75.6,73.1,30.00,SSE,156,0.0,0.0,92,0.00,,,0.00,Wunderground v.1.13,2013-08-29 09:16:00,
2013-08-29 05:22:00,75.6,73.4,30.00,SSE,156,0.0,0.0,93,0.00,,,0.00,Wunderground v.1.13,2013-08-29 09:22:00,
2013-08-29 05:28:00,75.6,73.1,30.00,SSE,156,0.0,0.0,92,0.00,,,0.00,Wunderground v.1.13,2013-08-29 09:28:00,
2013-08-29 05:34:00,75.4,72.9,30.00,SSE,156,0.0,0.0,92,0.00,,,0.00,Wunderground v.1.13,2013-08-29 09:34:00,
2013-08-29 05:40:00,75.6,73.4,30.00,SSE,156,0.0,0.0,93,0.00,,,0.00,Wunderground v.1.13,2013-08-29 09:40:00,
2013-08-29 05:46:00,75.5,73.0,30.00,SSE,156,0.0,0.0,92,0.00,,,0.00,Wunderground v.1.13,2013-08-29 09:46:00,
2013-08-29 05:52:00,75.4,73.2,29.99,SSE,156,0.0,0.0,93,0.00,,,0.00,Wunderground v.1.13,2013-08-29 09:52:00,
2013-08-29 05:58:00,75.3,72.8,30.00,SSE,156,0.0,0.0,92,0.00,,,0.00,Wunderground v.1.13,2013-08-29 09:58:00,
2013-08-29 06:04:00,75.1,72.6,30.00,SSE,156,0.0,0.0,92,0.00,,,0.00,Wunderground v.1.13,2013-08-29 10:04:00,
2013-08-29 06:10:00,75.0,72.5,30.00,SSE,156,0.0,0.0,92,0.00,,,0.00,Wunderground v.1.13,2013-08-29 10:10:00,
2013-08-29 06:16:00,75.1,72.6,30.00,SSE,156,0.0,0.0,92,0.00,,,0.00,Wunderground v.1.13,2013-08-29 10:16:00,
2013-08-29 06:22:00,75.3,72.8,30.00,SSE,156,0.0,0.0,92,0.00,,,0.00,Wunderground v.1.13,2013-08-29 10:22:00,
2013-08-29 06:28:00,75.3,72.8,30.00,SSE,156,0.0,0.0,92,0.00,,,0.00,Wunderground v.1.13,2013-08-29 10:28:00,
2013-08-29 06:34:00,75.2,72.7,30.00,SSE,156,0.0,0.0,92,0.00,,,0.00,Wunderground v.1.13,2013-08-29 10:34:00,
2013-08-29 06:40:00,75.2,73.0,30.00,SSE,156,0.0,0.0,93,0.00,,,0.00,Wunderground v.1.13,2013-08-29 10:40:00,
2013-08-29 06:46:00,75.2,73.0,30.01,SSE,156,0.0,0.0,93,0.00,,,0.00,Wunderground v.1.13,2013-08-29 10:46:00,
2013-08-29 06:52:00,75.1,72.9,30.01,SSE,156,0.0,0.0,93,0.00,,,0.00,Wunderground v.1.13,2013-08-29 10:52:00,
2013-08-29 06:58:00,74.9,72.7,30.01,SSE,156,0.0,0.0,93,0.00,,,0.00,Wunderground v.1.13,2013-08-29 10:58:00,
2013-08-29 07:04:00,74.9,72.7,30.01,SSE,156,0.0,0.0,93,0.00,,,0.00,Wunderground v.1.13,2013-08-29 11:04:00,
2013-08-29 07:10:00,74.8,72.6,30.01,SSE,156,0.0,0.0,93,0.00,,,0.00,Wunderground v.1.13,2013-08-29 11:10:00,
2013-08-29 07:16:00,75.0,73.2,30.01,SSE,156,0.0,0.0,94,0.00,,,0.00,Wunderground v.1.13,2013-08-29 11:16:00,
2013-08-29 07:22:00,74.9,72.7,30.01,SSE,156,0.0,0.0,93,0.00,,,0.00,Wunderground v.1.13,2013-08-29 11:22:00,
2013-08-29 07:28:00,74.9,72.7,30.01,SSE,156,0.0,0.0,93,0.00,,,0.00,Wunderground v.1.13,2013-08-29 11:28:00,
2013-08-29 07:34:00,74.9,73.1,30.01,SSE,156,0.0,0.0,94,0.00,,,0.00,Wunderground v.1.13,2013-08-29 11:34:00,
2013-08-29 07:40:00,75.0,73.2,30.01,SSE,156,0.0,0.0,94,0.00,,,0.00,Wunderground v.1.13,2013-08-29 11:40:00,
2013-08-29 07:46:00,74.9,73.1,30.01,SSE,156,0.0,0.0,94,0.00,,,0.00,Wunderground v.1.13,2013-08-29 11:46:00,
2013-08-29 07:52:00,75.1,73.3,30.01,SSE,156,0.0,0.0,94,0.00,,,0.00,Wunderground v.1.13,2013-08-29 11:52:00,
2013-08-29 07:58:00,75.5,73.7,30.02,SSE,156,0.0,0.0,94,0.00,,,0.00,Wunderground v.1.13,2013-08-29 11:58:00,
2013-08-29 08:04:00,75.8,73.9,30.02,SSE,156,0.0,0.0,94,0.00,,,0.00,Wunderground v.1.13,2013-08-29 12:04:00,
2013-08-29 08:10:00,76.0,74.1,30.02,SSE,156,0.0,0.0,94,0.00,,,0.00,Wunderground v.1.13,2013-08-29 12:10:00,
2013-08-29 08:16:00,76.4,74.5,30.02,SSE,156,0.0,0.0,94,0.00,,,0.00,Wunderground v.1.13,2013-08-29 12:16:00,
2013-08-29 08:22:00,77.0,75.1,30.02,SSE,156,0.0,0.0,94,0.00,,,0.00,Wunderground v.1.13,2013-08-29 12:22:00,
2013-08-29 08:28:00,77.3,75.1,30.02,SSE,156,0.0,0.0,93,0.00,,,0.00,Wunderground v.1.13,2013-08-29 12:28:00,
2013-08-29 08:34:00,77.6,75.1,30.02,SSE,156,0.0,0.0,92,0.00,,,0.00,Wunderground v.1.13,2013-08-29 12:34:00,
2013-08-29 08:40:00,77.9,75.1,30.02,SSE,156,0.0,0.0,91,0.00,,,0.00,Wunderground v.1.13,2013-08-29 12:40:00,
2013-08-29 08:46:00,78.2,75.4,30.02,SSE,156,0.0,0.0,91,0.00,,,0.00,Wunderground v.1.13,2013-08-29 12:46:00,
2013-08-29 08:52:00,78.6,75.4,30.02,SSE,156,0.0,0.0,90,0.00,,,0.00,Wunderground v.1.13,2013-08-29 12:52:00,
2013-08-29 08:58:00,79.1,75.6,30.02,SSE,156,0.0,0.0,89,0.00,,,0.00,Wunderground v.1.13,2013-08-29 12:58:00,
2013-08-29 09:04:00,79.8,75.6,30.02,SSE,156,0.0,0.0,87,0.00,,,0.00,Wunderground v.1.13,2013-08-29 13:04:00,
2013-08-29 09:10:00,80.3,75.4,30.03,SSE,156,0.0,0.0,85,0.00,,,0.00,Wunderground v.1.13,2013-08-29 13:10:00,
2013-08-29 09:16:00,80.8,75.5,30.02,SSE,156,0.0,0.0,84,0.00,,,0.00,Wunderground v.1.13,2013-08-29 13:16:00,
2013-08-29 09:22:00,81.4,76.1,30.03,SSE,156,0.0,0.0,84,0.00,,,0.00,Wunderground v.1.13,2013-08-29 13:22:00,
2013-08-29 09:28:00,81.7,75.7,30.03,SSE,156,0.0,0.0,82,0.00,,,0.00,Wunderground v.1.13,2013-08-29 13:28:00,
2013-08-29 09:34:00,81.9,75.5,30.03,SSE,156,0.0,0.0,81,0.00,,,0.00,Wunderground v.1.13,2013-08-29 13:34:00,
2013-08-29 09:40:00,82.0,75.6,30.03,SSE,156,0.0,0.0,81,0.00,,,0.00,Wunderground v.1.13,2013-08-29 13:40:00,
2013-08-29 09:46:00,82.2,75.8,30.03,SSE,156,0.0,0.0,81,0.00,,,0.00,Wunderground v.1.13,2013-08-29 13:46:00,
2013-08-29 09:52:00,82.5,75.7,30.03,SSE,156,0.0,0.0,80,0.00,,,0.00,Wunderground v.1.13,2013-08-29 13:52:00,
2013-08-29 09:58:00,82.7,75.5,30.03,SSE,156,0.0,0.0,79,0.00,,,0.00,Wunderground v.1.13,2013-08-29 13:58:00,
2013-08-29 10:04:00,82.9,75.3,30.03,SSE,156,0.0,0.0,78,0.00,,,0.00,Wunderground v.1.13,2013-08-29 14:04:00,
2013-08-29 10:10:00,82.8,74.8,30.03,SSE,156,0.0,0.0,77,0.00,,,0.00,Wunderground v.1.13,2013-08-29 14:10:00,
2013-08-29 10:16:00,83.0,75.0,30.03,SSE,156,0.0,0.0,77,0.00,,,0.00,Wunderground v.1.13,2013-08-29 14:16:00,
2013-08-29 10:22:00,83.1,74.7,30.04,SSE,156,0.0,0.0,76,0.00,,,0.00,Wunderground v.1.13,2013-08-29 14:22:00,
2013-08-29 10:28:00,83.4,75.4,30.03,SSE,156,0.0,0.0,77,0.00,,,0.00,Wunderground v.1.13,2013-08-29 14:28:00,
2013-08-29 10:34:00,83.7,75.7,30.03,SSE,156,0.0,0.0,77,0.00,,,0.00,Wunderground v.1.13,2013-08-29 14:34:00,
2013-08-29 10:40:00,84.0,75.6,30.03,NNE,29,0.0,0.0,76,0.00,,,0.01,Wunderground v.1.13,2013-08-29 14:40:00,
2013-08-29 10:46:00,84.1,75.3,30.03,NE,47,0.0,0.0,75,0.00,,,0.01,Wunderground v.1.13,2013-08-29 14:46:00,
2013-08-29 10:52:00,84.1,75.3,30.03,NE,51,0.0,0.0,75,0.00,,,0.01,Wunderground v.1.13,2013-08-29 14:52:00,
2013-08-29 10:58:00,84.4,75.6,30.03,NE,51,0.0,0.0,75,0.00,,,0.01,Wunderground v.1.13,2013-08-29 14:58:00,
2013-08-29 11:04:00,84.7,75.9,30.03,NE,50,0.0,0.0,75,0.00,,,0.01,Wunderground v.1.13,2013-08-29 15:04:00,
2013-08-29 11:10:00,85.0,76.2,30.03,NE,51,0.0,0.0,75,0.00,,,0.01,Wunderground v.1.13,2013-08-29 15:10:00,
2013-08-29 11:16:00,85.2,75.6,30.03,NE,48,0.0,0.0,73,0.00,,,0.01,Wunderground v.1.13,2013-08-29 15:16:00,
2013-08-29 11:22:00,85.4,75.8,30.03,NE,48,0.0,0.0,73,0.00,,,0.01,Wunderground v.1.13,2013-08-29 15:22:00,
2013-08-29 11:28:00,85.9,75.8,30.03,NE,56,0.0,0.0,72,0.00,,,0.01,Wunderground v.1.13,2013-08-29 15:28:00,
2013-08-29 11:34:00,86.1,75.6,30.02,NE,55,0.0,0.0,71,0.00,,,0.01,Wunderground v.1.13,2013-08-29 15:34:00,
2013-08-29 11:40:00,86.4,75.5,30.02,ENE,69,0.0,0.0,70,0.00,,,0.01,Wunderground v.1.13,2013-08-29 15:40:00,
2013-08-29 11:46:00,86.4,75.0,30.02,ENE,70,0.0,0.0,69,0.00,,,0.01,Wunderground v.1.13,2013-08-29 15:46:00,
2013-08-29 11:52:00,86.6,75.2,30.02,NE,39,0.0,0.0,69,0.00,,,0.01,Wunderground v.1.13,2013-08-29 15:52:00,
2013-08-29 11:58:00,86.7,75.3,30.02,NE,40,0.0,0.0,69,0.00,,,0.01,Wunderground v.1.13,2013-08-29 15:58:00,
2013-08-29 12:04:00,86.7,75.3,30.02,NNW,340,0.0,0.0,69,0.00,,,0.01,Wunderground v.1.13,2013-08-29 16:04:00,
2013-08-29 12:10:00,87.0,75.6,30.02,ENE,61,0.0,0.0,69,0.00,,,0.01,Wunderground v.1.13,2013-08-29 16:10:00,
2013-08-29 12:16:00,87.2,75.3,30.02,ENE,66,0.0,1.0,68,0.00,,,0.01,Wunderground v.1.13,2013-08-29 16:16:00,
2013-08-29 12:22:00,87.2,74.9,30.02,ENE,69,0.0,1.0,67,0.00,,,0.01,Wunderground v.1.13,2013-08-29 16:22:00,
2013-08-29 12:28:00,87.5,76.1,30.02,ENE,63,0.0,1.0,69,0.00,,,0.01,Wunderground v.1.13,2013-08-29 16:28:00,
2013-08-29 12:34:00,87.9,75.6,30.02,NE,36,0.0,1.0,67,0.00,,,0.01,Wunderground v.1.13,2013-08-29 16:34:00,
2013-08-29 12:40:00,88.1,75.3,30.02,North,360,0.0,1.0,66,0.00,,,0.01,Wunderground v.1.13,2013-08-29 16:40:00,
2013-08-29 12:46:00,88.4,75.6,30.02,NNW,341,0.0,1.0,66,0.00,,,0.01,Wunderground v.1.13,2013-08-29 16:46:00,
2013-08-29 12:52:00,88.4,74.7,30.02,NNW,341,1.0,3.0,64,0.00,,,0.01,Wunderground v.1.13,2013-08-29 16:52:00,
2013-08-29 12:58:00,88.5,75.2,30.01,NNW,334,2.0,3.0,65,0.00,,,0.01,Wunderground v.1.13,2013-08-29 16:58:00,
2013-08-29 13:04:00,88.9,76.1,30.01,North,360,1.0,6.0,66,0.00,,,0.01,Wunderground v.1.13,2013-08-29 17:04:00,
2013-08-29 13:10:00,88.7,75.9,30.01,NNW,345,1.0,4.0,66,0.00,,,0.01,Wunderground v.1.13,2013-08-29 17:10:00,
2013-08-29 13:16:00,88.3,75.5,30.01,NNW,344,1.0,11.0,66,0.00,,,0.01,Wunderground v.1.13,2013-08-29 17:16:00,
2013-08-29 13:22:00,88.5,76.1,30.01,NW,312,1.0,11.0,67,0.00,,,0.01,Wunderground v.1.13,2013-08-29 17:22:00,
2013-08-29 13:28:00,88.3,75.0,30.01,NNW,334,2.0,11.0,65,0.00,,,0.01,Wunderground v.1.13,2013-08-29 17:28:00,
2013-08-29 13:34:00,88.1,74.4,30.01,NW,313,2.0,11.0,64,0.00,,,0.01,Wunderground v.1.13,2013-08-29 17:34:00,
2013-08-29 13:40:00,88.1,74.8,30.01,NNW,331,3.0,11.0,65,0.00,,,0.01,Wunderground v.1.13,2013-08-29 17:40:00,
2013-08-29 13:46:00,88.3,75.0,30.01,WNW,303,3.0,11.0,65,0.00,,,0.01,Wunderground v.1.13,2013-08-29 17:46:00,
2013-08-29 13:52:00,88.7,75.4,30.01,North,350,2.0,11.0,65,0.00,,,0.01,Wunderground v.1.13,2013-08-29 17:52:00,
2013-08-29 13:58:00,89.0,75.7,30.01,North,349,1.0,11.0,65,0.00,,,0.01,Wunderground v.1.13,2013-08-29 17:58:00,
2013-08-29 14:04:00,89.2,75.9,30.01,West,277,1.0,11.0,65,0.00,,,0.01,Wunderground v.1.13,2013-08-29 18:04:00,
2013-08-29 14:10:00,89.1,75.3,30.00,NNW,347,2.0,4.0,64,0.00,,,0.01,Wunderground v.1.13,2013-08-29 18:10:00,
2013-08-29 14:16:00,88.9,75.1,30.00,WNW,295,3.0,10.0,64,0.00,,,0.01,Wunderground v.1.13,2013-08-29 18:16:00,
2013-08-29 14:22:00,88.8,74.6,30.00,NW,316,3.0,10.0,63,0.00,,,0.01,Wunderground v.1.13,2013-08-29 18:22:00,
2013-08-29 14:28:00,89.0,75.2,30.00,NW,315,2.0,10.0,64,0.00,,,0.01,Wunderground v.1.13,2013-08-29 18:28:00,
2013-08-29 14:34:00,89.3,75.0,29.99,NW,319,1.0,10.0,63,0.00,,,0.01,Wunderground v.1.13,2013-08-29 18:34:00,
2013-08-29 14:40:00,89.2,75.4,30.00,NW,321,1.0,10.0,64,0.00,,,0.01,Wunderground v.1.13,2013-08-29 18:40:00,
2013-08-29 14:46:00,89.2,75.0,29.99,NW,313,2.0,10.0,63,0.00,,,0.01,Wunderground v.1.13,2013-08-29 18:46:00,
2013-08-29 14:52:00,89.2,75.4,29.99,NW,310,2.0,10.0,64,0.00,,,0.01,Wunderground v.1.13,2013-08-29 18:52:00,
2013-08-29 14:58:00,89.3,75.0,29.99,NNW,328,1.0,10.0,63,0.00,,,0.01,Wunderground v.1.13,2013-08-29 18:58:00,
2013-08-29 15:04:00,89.0,74.8,29.99,NW,304,2.0,10.0,63,0.00,,,0.01,Wunderground v.1.13,2013-08-29 19:04:00,
2013-08-29 15:10:00,89.0,75.2,29.98,NNW,339,1.0,2.0,64,0.00,,,0.01,Wunderground v.1.13,2013-08-29 19:10:00,
2013-08-29 15:16:00,89.2,75.4,29.98,NNW,332,1.0,12.0,64,0.00,,,0.01,Wunderground v.1.13,2013-08-29 19:16:00,
2013-08-29 15:22:00,89.3,74.6,29.97,NNW,342,1.0,12.0,62,0.00,,,0.01,Wunderground v.1.13,2013-08-29 19:22:00,
2013-08-29 15:28:00,89.2,75.0,29.97,North,355,1.0,12.0,63,0.00,,,0.01,Wunderground v.1.13,2013-08-29 19:28:00,
2013-08-29 15:34:00,89.2,75.4,29.96,NNW,348,0.0,12.0,64,0.00,,,0.01,Wunderground v.1.13,2013-08-29 19:34:00,
2013-08-29 15:40:00,89.1,74.9,29.96,WNW,290,2.0,12.0,63,0.00,,,0.01,Wunderground v.1.13,2013-08-29 19:40:00,
2013-08-29 15:46:00,88.9,75.1,29.96,WNW,300,3.0,12.0,64,0.00,,,0.01,Wunderground v.1.13,2013-08-29 19:46:00,
2013-08-29 15:52:00,89.0,74.8,29.96,NNW,335,2.0,12.0,63,0.00,,,0.01,Wunderground v.1.13,2013-08-29 19:52:00,
2013-08-29 15:58:00,89.1,75.3,29.95,NW,321,1.0,12.0,64,0.00,,,0.01,Wunderground v.1.13,2013-08-29 19:58:00,
2013-08-29 16:04:00,88.8,74.1,29.95,NW,305,3.0,12.0,62,0.00,,,0.01,Wunderground v.1.13,2013-08-29 20:04:00,
2013-08-29 16:10:00,88.8,75.0,29.96,WNW,288,3.0,5.0,64,0.00,,,0.01,Wunderground v.1.13,2013-08-29 20:10:00,
2013-08-29 16:16:00,88.7,74.5,29.96,NW,309,2.0,11.0,63,0.00,,,0.01,Wunderground v.1.13,2013-08-29 20:16:00,
2013-08-29 16:22:00,88.6,75.3,29.96,NNW,346,2.0,11.0,65,0.00,,,0.01,Wunderground v.1.13,2013-08-29 20:22:00,
2013-08-29 16:28:00,88.2,75.4,29.95,NNW,331,3.0,11.0,66,0.00,,,0.01,Wunderground v.1.13,2013-08-29 20:28:00,
2013-08-29 16:34:00,88.0,75.7,29.95,NNW,345,3.0,11.0,67,0.00,,,0.01,Wunderground v.1.13,2013-08-29 20:34:00,
2013-08-29 16:40:00,87.9,76.5,29.95,NW,309,1.0,11.0,69,0.00,,,0.01,Wunderground v.1.13,2013-08-29 20:40:00,
2013-08-29 16:46:00,88.0,76.5,29.95,NNW,331,1.0,11.0,69,0.00,,,0.01,Wunderground v.1.13,2013-08-29 20:46:00,
2013-08-29 16:52:00,87.9,76.0,29.95,NW,323,2.0,11.0,68,0.00,,,0.01,Wunderground v.1.13,2013-08-29 20:52:00,
2013-08-29 16:58:00,87.6,76.2,29.95,North,5,2.0,11.0,69,0.00,,,0.01,Wunderground v.1.13,2013-08-29 20:58:00,
2013-08-29 17:04:00,87.5,76.5,29.95,WNW,286,1.0,11.0,70,0.00,,,0.01,Wunderground v.1.13,2013-08-29 21:04:00,
2013-08-29 17:10:00,87.9,76.5,29.95,West,269,0.0,1.0,69,0.00,,,0.01,Wunderground v.1.13,2013-08-29 21:10:00,
2013-08-29 17:16:00,88.0,76.1,29.95,NNW,340,0.0,12.0,68,0.00,,,0.01,Wunderground v.1.13,2013-08-29 21:16:00,
2013-08-29 17:22:00,87.8,75.0,29.95,NW,319,1.0,12.0,66,0.00,,,0.01,Wunderground v.1.13,2013-08-29 21:22:00,
2013-08-29 17:28:00,87.8,75.0,29.94,NW,317,1.0,12.0,66,0.00,,,0.01,Wunderground v.1.13,2013-08-29 21:28:00,
2013-08-29 17:34:00,87.5,75.6,29.95,NNW,331,2.0,12.0,68,0.00,,,0.01,Wunderground v.1.13,2013-08-29 21:34:00,
2013-08-29 17:40:00,87.4,76.0,29.94,North,351,1.0,12.0,69,0.00,,,0.01,Wunderground v.1.13,2013-08-29 21:40:00,
2013-08-29 17:46:00,87.4,76.0,29.94,NW,307,1.0,12.0,69,0.00,,,0.01,Wunderground v.1.13,2013-08-29 21:46:00,
2013-08-29 17:52:00,87.2,75.3,29.94,North,5,2.0,12.0,68,0.00,,,0.01,Wunderground v.1.13,2013-08-29 21:52:00,
2013-08-29 17:58:00,86.9,75.9,29.94,NNW,327,3.0,12.0,70,0.00,,,0.01,Wunderground v.1.13,2013-08-29 21:58:00,
2013-08-29 18:04:00,87.0,76.5,29.95,NW,309,2.0,12.0,71,0.00,,,0.01,Wunderground v.1.13,2013-08-29 22:04:00,
2013-08-29 18:10:00,86.8,76.7,29.94,North,355,1.0,9.0,72,0.00,,,0.01,Wunderground v.1.13,2013-08-29 22:10:00,
2013-08-29 18:16:00,86.7,76.2,29.94,NW,317,1.0,13.0,71,0.00,,,0.01,Wunderground v.1.13,2013-08-29 22:16:00,
2013-08-29 18:22:00,86.5,76.0,29.94,NW,308,1.0,13.0,71,0.00,,,0.01,Wunderground v.1.13,2013-08-29 22:22:00,
2013-08-29 18:28:00,86.5,76.0,29.95,NW,319,0.0,13.0,71,0.00,,,0.01,Wunderground v.1.13,2013-08-29 22:28:00,
2013-08-29 18:34:00,86.4,76.3,29.94,NW,325,0.0,13.0,72,0.00,,,0.01,Wunderground v.1.13,2013-08-29 22:34:00,
2013-08-29 18:40:00,86.5,76.4,29.94,NW,321,0.0,13.0,72,0.00,,,0.01,Wunderground v.1.13,2013-08-29 22:40:00,
2013-08-29 18:46:00,86.2,75.7,29.94,NNW,330,1.0,13.0,71,0.00,,,0.01,Wunderground v.1.13,2013-08-29 22:46:00,
2013-08-29 18:52:00,86.1,75.6,29.94,NW,313,1.0,13.0,71,0.00,,,0.01,Wunderground v.1.13,2013-08-29 22:52:00,
2013-08-29 18:58:00,86.0,75.1,29.94,NNW,331,1.0,13.0,70,0.00,,,0.01,Wunderground v.1.13,2013-08-29 22:58:00,
2013-08-29 19:04:00,85.9,75.0,29.94,NW,309,1.0,13.0,70,0.00,,,0.01,Wunderground v.1.13,2013-08-29 23:04:00,
2013-08-29 19:10:00,85.8,75.3,29.94,NW,307,1.0,1.0,71,0.00,,,0.01,Wunderground v.1.13,2013-08-29 23:10:00,
2013-08-29 19:16:00,85.8,74.9,29.95,NW,313,0.0,10.0,70,0.00,,,0.01,Wunderground v.1.13,2013-08-29 23:16:00,
2013-08-29 19:22:00,85.5,74.6,29.95,NW,313,1.0,10.0,70,0.00,,,0.01,Wunderground v.1.13,2013-08-29 23:22:00,
2013-08-29 19:28:00,85.4,74.9,29.95,NNW,329,0.0,10.0,71,0.00,,,0.01,Wunderground v.1.13,2013-08-29 23:28:00,
2013-08-29 19:34:00,85.1,74.6,29.95,WNW,300,0.0,10.0,71,0.00,,,0.01,Wunderground v.1.13,2013-08-29 23:34:00,
2013-08-29 19:40:00,84.9,74.9,29.95,NW,315,1.0,10.0,72,0.00,,,0.01,Wunderground v.1.13,2013-08-29 23:40:00,
2013-08-29 19:46:00,84.7,75.1,29.95,NNW,329,1.0,10.0,73,0.00,,,0.01,Wunderground v.1.13,2013-08-29 23:46:00,
2013-08-29 19:52:00,84.4,74.8,29.95,NW,315,1.0,10.0,73,0.00,,,0.01,Wunderground v.1.13,2013-08-29 23:52:00,
2013-08-29 19:58:00,84.3,75.1,29.95,NW,309,0.0,10.0,74,0.00,,,0.01,Wunderground v.1.13,2013-08-29 23:58:00,
2013-08-29 20:04:00,84.1,74.9,29.96,NW,316,0.0,10.0,74,0.00,,,0.01,Wunderground v.1.13,2013-08-30 00:04:00,
2013-08-29 20:10:00,84.1,74.9,29.96,NW,315,1.0,7.0,74,0.00,,,0.01,Wunderground v.1.13,2013-08-30 00:10:00,
2013-08-29 20:16:00,83.9,74.7,29.95,NW,317,1.0,6.0,74,0.00,,,0.01,Wunderground v.1.13,2013-08-30 00:16:00,
2013-08-29 20:22:00,83.9,75.1,29.95,NW,317,1.0,6.0,75,0.00,,,0.01,Wunderground v.1.13,2013-08-30 00:22:00,
2013-08-29 20:28:00,83.7,74.9,29.96,NW,325,0.0,6.0,75,0.00,,,0.01,Wunderground v.1.13,2013-08-30 00:28:00,
2013-08-29 20:34:00,83.6,75.2,29.96,NW,322,0.0,6.0,76,0.00,,,0.01,Wunderground v.1.13,2013-08-30 00:34:00,
2013-08-29 20:40:00,83.5,75.5,29.96,WNW,298,0.0,6.0,77,0.00,,,0.01,Wunderground v.1.13,2013-08-30 00:40:00,
2013-08-29 20:46:00,83.4,75.4,29.96,WNW,299,0.0,6.0,77,0.00,,,0.01,Wunderground v.1.13,2013-08-30 00:46:00,
2013-08-29 20:52:00,83.2,75.2,29.96,NW,304,0.0,6.0,77,0.00,,,0.01,Wunderground v.1.13,2013-08-30 00:52:00,
2013-08-29 20:58:00,83.1,75.5,29.96,NW,319,0.0,6.0,78,0.00,,,0.01,Wunderground v.1.13,2013-08-30 00:58:00,
2013-08-29 21:04:00,83.0,75.4,29.96,NW,319,0.0,6.0,78,0.00,,,0.01,Wunderground v.1.13,2013-08-30 01:04:00,
2013-08-29 21:10:00,82.9,75.3,29.96,NW,319,0.0,0.0,78,0.00,,,0.01,Wunderground v.1.13,2013-08-30 01:10:00,
2013-08-29 21:16:00,82.9,75.3,29.96,NW,319,0.0,0.0,78,0.00,,,0.01,Wunderground v.1.13,2013-08-30 01:16:00,
2013-08-29 21:22:00,82.8,75.2,29.96,NW,319,0.0,0.0,78,0.00,,,0.01,Wunderground v.1.13,2013-08-30 01:22:00,
2013-08-29 21:28:00,82.8,75.6,29.96,NW,319,0.0,0.0,79,0.00,,,0.01,Wunderground v.1.13,2013-08-30 01:28:00,
2013-08-29 21:34:00,82.7,75.1,29.96,NW,319,0.0,0.0,78,0.00,,,0.01,Wunderground v.1.13,2013-08-30 01:34:00,
2013-08-29 21:40:00,82.6,75.4,29.96,NW,319,0.0,0.0,79,0.00,,,0.01,Wunderground v.1.13,2013-08-30 01:40:00,
2013-08-29 21:46:00,82.5,75.3,29.97,NW,319,0.0,0.0,79,0.00,,,0.01,Wunderground v.1.13,2013-08-30 01:46:00,
2013-08-29 21:52:00,82.4,75.2,29.97,NW,319,0.0,0.0,79,0.00,,,0.01,Wunderground v.1.13,2013-08-30 01:52:00,
2013-08-29 21:58:00,82.4,75.2,29.97,NW,319,0.0,0.0,79,0.00,,,0.01,Wunderground v.1.13,2013-08-30 01:58:00,
2013-08-29 22:04:00,82.3,75.1,29.97,NW,319,0.0,0.0,79,0.00,,,0.01,Wunderground v.1.13,2013-08-30 02:04:00,
2013-08-29 22:10:00,82.3,75.1,29.97,NW,319,0.0,0.0,79,0.00,,,0.01,Wunderground v.1.13,2013-08-30 02:10:00,
2013-08-29 22:16:00,82.3,75.5,29.97,NW,319,0.0,0.0,80,0.00,,,0.01,Wunderground v.1.13,2013-08-30 02:16:00,
2013-08-29 22:22:00,82.2,75.4,29.97,NW,319,0.0,0.0,80,0.00,,,0.01,Wunderground v.1.13,2013-08-30 02:22:00,
2013-08-29 22:28:00,82.2,75.4,29.98,NW,319,0.0,0.0,80,0.00,,,0.01,Wunderground v.1.13,2013-08-30 02:28:00,
2013-08-29 22:34:00,82.1,75.7,29.98,NW,319,0.0,0.0,81,0.00,,,0.01,Wunderground v.1.13,2013-08-30 02:34:00,
2013-08-29 22:40:00,82.1,75.7,29.97,NW,319,0.0,0.0,81,0.00,,,0.01,Wunderground v.1.13,2013-08-30 02:40:00,
2013-08-29 22:46:00,82.0,76.0,29.97,NW,319,0.0,0.0,82,0.00,,,0.01,Wunderground v.1.13,2013-08-30 02:46:00,
2013-08-29 22:52:00,81.9,75.9,29.98,NW,319,0.0,0.0,82,0.00,,,0.01,Wunderground v.1.13,2013-08-30 02:52:00,
2013-08-29 22:58:00,81.6,75.6,29.98,NW,319,0.0,0.0,82,0.00,,,0.01,Wunderground v.1.13,2013-08-30 02:58:00,
2013-08-29 23:04:00,81.5,75.8,29.98,NW,319,0.0,0.0,83,0.00,,,0.01,Wunderground v.1.13,2013-08-30 03:04:00,
2013-08-29 23:10:00,81.4,75.7,29.98,NW,319,0.0,0.0,83,0.00,,,0.01,Wunderground v.1.13,2013-08-30 03:10:00,
2013-08-29 23:16:00,81.2,75.5,29.98,NW,319,0.0,0.0,83,0.00,,,0.01,Wunderground v.1.13,2013-08-30 03:16:00,
2013-08-29 23:22:00,81.2,75.5,29.98,NW,319,0.0,0.0,83,0.00,,,0.01,Wunderground v.1.13,2013-08-30 03:22:00,
2013-08-29 23:28:00,81.1,75.8,29.98,NW,319,0.0,0.0,84,0.00,,,0.01,Wunderground v.1.13,2013-08-30 03:28:00,
2013-08-29 23:34:00,81.1,75.8,29.98,NW,319,0.0,0.0,84,0.00,,,0.01,Wunderground v.1.13,2013-08-30 03:34:00,
2013-08-29 23:40:00,81.0,75.7,29.98,NW,319,0.0,0.0,84,0.00,,,0.01,Wunderground v.1.13,2013-08-30 03:40:00,
2013-08-29 23:46:00,80.9,76.0,29.98,NW,319,0.0,0.0,85,0.00,,,0.01,Wunderground v.1.13,2013-08-30 03:46:00,
2013-08-29 23:52:00,80.7,75.8,29.99,NW,319,0.0,0.0,85,0.00,,,0.01,Wunderground v.1.13,2013-08-30 03:52:00,
2013-08-29 23:58:00,80.7,75.8,29.99,NW,319,0.0,0.0,85,0.00,,,0.01,Wunderground v.1.13,2013-08-30 03:58:00,